This demonstration page uses our WeatherBlox Daily Observations layout. Learn more.

Hourly Observations for January 25, 2021

Temp ( °F °C ) Dew Point ( °F °C ) Humidity (%) Winds ( mph kmh ) Pressure ( in mb ) Visibility ( mi km ) Precip ( " mm )
6:30 am 06:30 Cloudy 30 -1 28 -2 93 93 E 9 15 30.07 1018 7 11.26538 N/A
6:47 am 06:47 Cloudy 30 -1 28 -2 93 93 ENE 10 17 30.03 1017 7 11.26538 N/A
7:45 am 07:45 Cloudy 30 -1 28 -2 93 93 NE 8 13 30.09 1019 7 11.26538 N/A
8:32 am 08:32 Cloudy with Light Freezing Drizzle 30 -1 28 -2 93 93 E 8 13 30.04 1017 5 8.0467 N/A
8:45 am 08:45 Cloudy with Light Freezing Drizzle 30 -1 28 -2 93 93 E 9 15 30.04 1017 5 8.0467 N/A
9:18 am 09:18 Cloudy with Light Freezing Rain 30 -1 28 -2 93 93 E 8 13 30.03 1017 5 8.0467 N/A
9:55 am 09:55 Cloudy with Light Freezing Rain 30 -1 28 -2 93 93 E 9 15 30.02 1017 5 8.0467 N/A
10:51 am 10:51 Cloudy with Light Freezing Rain 30 -1 28 -2 93 93 E 9 15 29.98 1015 4 6.43736 N/A
11:45 am 11:45 Cloudy with Light Freezing Rain 30 -1 28 -2 93 93 NE 7 11 30.02 1017 1.5 2.41401 N/A
12:45 pm 12:45 Cloudy with Light Freezing Rain 30 -1 30 -1 100 100 NNE 10 17 29.95 1014 2.5 4.02335 N/A
1:49 pm 13:49 Cloudy with Light Rain 32 0 30 -1 93 93 ENE 6 9 29.92 1013 10 16.0934 N/A
2:45 pm 14:45 Cloudy with Light Rain 32 0 30 -1 93 93 NE 7 11 29.85 1011 10 16.0934 N/A
3:55 pm 15:55 Cloudy 32 0 32 0 100 100 ENE 10 17 29.82 1010 10 16.0934 N/A
4:50 pm 16:50 Cloudy 34 1 32 0 93 93 ENE 9 15 29.79 1009 10 16.0934 N/A
5:10 pm 17:10 Cloudy with Mist and Fog 32 0 32 0 100 100 ENE 10 17 29.78 1008 3 4.82802 N/A
5:50 pm 17:50 Cloudy with Mist and Fog 32 0 32 0 100 100 NE 10 17 29.76 1008 5 8.0467 N/A
6:50 pm 18:50 Cloudy with Mist and Fog 32 0 32 0 100 100 NE 9 15 29.79 1009 3 4.82802 N/A
7:50 pm 19:50 Cloudy with Mist and Fog 32 0 32 0 100 100 NE 9 15 29.79 1009 4 6.43736 N/A
8:55 pm 20:55 Cloudy with Mist and Fog 32 0 32 0 100 100 ENE 8 13 29.77 1008 2 3.21868 N/A
9:59 pm 21:59 Cloudy with Mist and Fog 32 0 32 0 100 100 ENE 9 15 29.74 1007 3 4.82802 N/A

Powered by AerisWeather